Weather History for Windom, MN

Change the Weather History Date:

Tuesday, November 1, 2011

  Actual Average Record
Temperature  
Mean Temperature 50 °F -  
Max Temperature 62 °F 52 °F 76 °F (1990)
Min Temperature 39 °F 32 °F 11 °F (1984)
Degree Days  
Heating Degree Days 14    
Moisture  
Dew Point 36 °F    
Average Humidity 56    
Maximum Humidity 70    
Minimum Humidity 41    
Precipitation  
Precipitation 0.00 in - - ()
Sea Level Pressure  
Sea Level Pressure 29.86 in    
Wind  
Wind Speed 10 mph (WNW)    
Max Wind Speed 21 mph    
Max Gust Speed 26 mph    
Visibility 10 miles    
Events      
Averages and records for this station are not official NWS values.
T = Trace of Precipitation, MM = Missing Value Source: NWS Daily Summary

Daily Weather History Graph

Daily Weather History Graph

Search for Another Location

Airport:

Trip Planner

Search our weather history database for the weather conditions in past years. The results will help you decide how hot, cold, wet, or windy it might be!

Date:

Astronomy

Nov. 01, 2011 Rise Set
Actual Time 7:56 AM CDT 6:11 PM CDT
Civil Twilight 7:26 AM CDT 6:40 PM CDT
Nautical Twilight 6:52 AM CDT 7:14 PM CDT
Astronomical Twilight 6:18 AM CDT 7:48 PM CDT
Moon 1:45 PM CDT (11/1) 11:53 PM CDT (11/1)
Length of Visible Light 11h 14m
Length of Day
10h 14m
Waxing Crescent, 40% of the Moon is Illuminated
Nov 1
Waxing Crescent
Nov 2
First Quarter
Nov 10
Full
Nov 18
Last Quarter
Nov 25
New

Hourly Weather History & Observations

Time (CDT) Temp. Windchill Dew Point Humidity Pressure Visibility Wind Dir Wind Speed Gust Speed Precip Events Conditions
12:13 AM 51.8 °F - 28.4 °F 41% 29.85 in 10.0 mi South 9.2 mph - N/A   Clear
12:32 AM 51.8 °F - 30.2 °F 44% 29.85 in 10.0 mi South 10.4 mph - N/A   Clear
12:52 AM 51.8 °F - 30.2 °F 44% 29.85 in 10.0 mi South 8.1 mph - N/A   Clear
1:12 AM 50.0 °F - 30.2 °F 47% 29.84 in 10.0 mi South 6.9 mph - N/A   Clear
1:32 AM 50.0 °F - 30.2 °F 47% 29.84 in 10.0 mi South 9.2 mph - N/A   Clear
1:53 AM 51.8 °F - 30.2 °F 44% 29.83 in 10.0 mi South 10.4 mph - N/A   Clear
2:12 AM 51.8 °F - 32.0 °F 47% 29.83 in 10.0 mi South 11.5 mph - N/A   Clear
2:32 AM 50.0 °F - 32.0 °F 50% 29.82 in 10.0 mi South 10.4 mph - N/A   Clear
2:53 AM 48.2 °F - 32.0 °F 54% 29.82 in 10.0 mi South 9.2 mph - N/A   Clear
3:12 AM 48.2 °F - 32.0 °F 54% 29.82 in 10.0 mi South 9.2 mph - N/A   Clear
3:32 AM 48.2 °F - 32.0 °F 54% 29.82 in 10.0 mi South 5.8 mph - N/A   Clear
3:53 AM 46.4 °F 43.5 °F 32.0 °F 57% 29.82 in 10.0 mi South 5.8 mph - N/A   Clear
4:12 AM 46.4 °F 42.9 °F 33.8 °F 62% 29.81 in 10.0 mi South 6.9 mph - N/A   Clear
4:32 AM 46.4 °F 41.9 °F 33.8 °F 62% 29.80 in 10.0 mi South 9.2 mph - N/A   Clear
4:53 AM 46.4 °F 41.5 °F 33.8 °F 62% 29.80 in 10.0 mi South 10.4 mph - N/A   Clear
5:13 AM 46.4 °F 43.5 °F 33.8 °F 62% 29.80 in 10.0 mi South 5.8 mph - N/A   Clear
5:32 AM 44.6 °F 40.7 °F 33.8 °F 66% 29.80 in 10.0 mi South 6.9 mph - N/A   Clear
5:53 AM 44.6 °F 42.2 °F 32.0 °F 61% 29.80 in 10.0 mi South 4.6 mph - N/A   Clear
6:12 AM 42.8 °F 40.1 °F 32.0 °F 66% 29.80 in 10.0 mi South 4.6 mph - N/A   Clear
6:32 AM 42.8 °F 41.1 °F 32.0 °F 66% 29.81 in 10.0 mi SW 3.5 mph - N/A   Clear
6:53 AM 39.2 °F 35.0 °F 30.2 °F 70% 29.82 in 10.0 mi West 5.8 mph - N/A   Clear
7:13 AM 39.2 °F 34.2 °F 30.2 °F 70% 29.83 in 10.0 mi West 6.9 mph - N/A   Clear
7:32 AM 39.2 °F 35.0 °F 30.2 °F 70% 29.83 in 10.0 mi West 5.8 mph - N/A   Clear
7:53 AM 39.2 °F 37.0 °F 30.2 °F 70% 29.83 in 10.0 mi West 3.5 mph - N/A   Clear
8:12 AM 41.0 °F - 32.0 °F 70% 29.83 in 10.0 mi Calm Calm - N/A   Clear
8:32 AM 41.0 °F 39.0 °F 32.0 °F 70% 29.83 in 10.0 mi West 3.5 mph - N/A   Clear
8:53 AM 42.8 °F 41.1 °F 32.0 °F 66% 29.84 in 10.0 mi WSW 3.5 mph - N/A   Clear
9:12 AM 42.8 °F 41.1 °F 32.0 °F 66% 29.85 in 10.0 mi WSW 3.5 mph - N/A   Clear
9:32 AM 44.6 °F - 33.8 °F 66% 29.84 in 10.0 mi Calm Calm - N/A   Clear
9:53 AM 46.4 °F 43.5 °F 33.8 °F 62% 29.84 in 10.0 mi WNW 5.8 mph - N/A   Clear
10:12 AM 50.0 °F - 33.8 °F 54% 29.84 in 10.0 mi NW 9.2 mph - N/A   Clear
10:33 AM 53.6 °F - 35.6 °F 51% 29.85 in 10.0 mi NNW 15.0 mph - N/A   Clear
10:53 AM 55.4 °F - 35.6 °F 47% 29.85 in 10.0 mi NNW 16.1 mph - N/A   Clear
11:12 AM 57.2 °F - 35.6 °F 44% 29.85 in 10.0 mi North 18.4 mph 23.0 mph N/A   Clear
11:32 AM 57.2 °F - 35.6 °F 44% 29.87 in 10.0 mi NNW 18.4 mph - N/A   Clear
11:53 AM 57.2 °F - 37.4 °F 48% 29.87 in 10.0 mi North 17.3 mph 21.9 mph N/A   Clear
12:12 PM 57.2 °F - 39.2 °F 51% 29.89 in 10.0 mi NNW 20.7 mph 24.2 mph N/A   Clear
12:33 PM 57.2 °F - 42.8 °F 59% 29.88 in 10.0 mi North 17.3 mph 21.9 mph N/A   Clear
12:53 PM 57.2 °F - 42.8 °F 59% 29.88 in 10.0 mi North 18.4 mph 21.9 mph N/A   Clear
1:12 PM 59.0 °F - 42.8 °F 55% 29.88 in 10.0 mi North 16.1 mph 24.2 mph N/A   Clear
1:33 PM 60.8 °F - 42.8 °F 52% 29.88 in 10.0 mi NNW 18.4 mph 23.0 mph N/A   Clear
2:12 PM 59.0 °F - 42.8 °F 55% 29.86 in 10.0 mi North 17.3 mph 25.3 mph N/A   Scattered Clouds
2:33 PM 60.8 °F - 42.8 °F 52% 29.88 in 10.0 mi NNW 15.0 mph - N/A   Clear
2:52 PM 60.8 °F - 42.8 °F 52% 29.88 in 10.0 mi NNW 16.1 mph 23.0 mph N/A   Scattered Clouds
3:12 PM 62.6 °F - 41.0 °F 45% 29.89 in 10.0 mi NNW 15.0 mph 21.9 mph N/A   Clear
3:33 PM 59.0 °F - 42.8 °F 55% 29.89 in 10.0 mi North 16.1 mph 23.0 mph N/A   Clear
3:52 PM 60.8 °F - 41.0 °F 48% 29.90 in 10.0 mi NNW 20.7 mph 25.3 mph N/A   Scattered Clouds
4:12 PM 57.2 °F - 41.0 °F 55% 29.90 in 10.0 mi North 19.6 mph 26.5 mph N/A   Scattered Clouds
4:33 PM - - - N/A% 29.91 in 10.0 mi North 17.3 mph - N/A   Scattered Clouds
4:52 PM 57.2 °F - 39.2 °F 51% 29.92 in 10.0 mi North 15.0 mph 20.7 mph N/A   Scattered Clouds
5:12 PM 57.2 °F - 39.2 °F 51% 29.93 in 10.0 mi NNW 18.4 mph 24.2 mph N/A   Clear
5:33 PM 55.4 °F - 39.2 °F 54% 29.94 in 10.0 mi NNW 19.6 mph 24.2 mph N/A   Scattered Clouds
5:52 PM 55.4 °F - 41.0 °F 58% 29.95 in 10.0 mi NNW 16.1 mph - N/A   Scattered Clouds
6:12 PM 53.6 °F - 41.0 °F 62% 29.96 in 10.0 mi NNW 17.3 mph 21.9 mph N/A   Clear
6:33 PM 53.6 °F - 39.2 °F 58% 29.97 in 10.0 mi NNW 13.8 mph 21.9 mph N/A   Clear
6:52 PM 51.8 °F - 39.2 °F 62% 29.98 in 10.0 mi NNW 13.8 mph - N/A   Clear
7:12 PM 51.8 °F - 39.2 °F 62% 29.99 in 10.0 mi NNW 13.8 mph - N/A   Clear
7:33 PM 50.0 °F - 39.2 °F 66% 30.00 in 10.0 mi NNW 15.0 mph - N/A   Clear
7:52 PM 50.0 °F - 39.2 °F 66% 30.00 in 10.0 mi NNW 16.1 mph 20.7 mph N/A   Clear
8:12 PM 50.0 °F - 37.4 °F 62% 30.00 in 10.0 mi NNW 17.3 mph 20.7 mph N/A   Clear
8:33 PM 50.0 °F - 37.4 °F 62% 30.01 in 10.0 mi NNW 17.3 mph 20.7 mph N/A   Clear
8:52 PM 50.0 °F - 37.4 °F 62% 30.01 in 10.0 mi NNW 16.1 mph - N/A   Clear
9:33 PM 48.2 °F - 39.2 °F 71% 30.02 in 10.0 mi NNW 12.7 mph - N/A   Clear
9:52 PM 48.2 °F - 39.2 °F 71% 30.03 in 10.0 mi NNW 13.8 mph - N/A   Clear
10:12 PM 48.2 °F - 39.2 °F 71% 30.03 in 10.0 mi NNW 17.3 mph 21.9 mph N/A   Scattered Clouds
10:33 PM 48.2 °F - 37.4 °F 66% 30.03 in 10.0 mi NNW 16.1 mph 21.9 mph N/A   Scattered Clouds
10:52 PM 48.2 °F - 37.4 °F 66% 30.03 in 10.0 mi NNW 17.3 mph - N/A   Mostly Cloudy
11:12 PM 48.2 °F - 37.4 °F 66% 30.02 in 10.0 mi NNW 17.3 mph 20.7 mph N/A   Scattered Clouds
11:33 PM 48.2 °F - 37.4 °F 66% 30.03 in 10.0 mi NNW 18.4 mph - N/A   Mostly Cloudy
11:52 PM 48.2 °F - 37.4 °F 66% 30.03 in 10.0 mi NNW 18.4 mph - N/A   Overcast